Theta_e
325 328 328 324 324 324 323 324 329 331 329 329 326 329 329 328 330 331 332 332 331 329 328 330 328 327 325 323 325 324 324 324 325 327 326 326 326 326 325 326 328 327 328
327 328 330 326 324 323 324 328 331 327 326 327 329 329 328 329 331 331 333 331 330 329 330 328 327 326 323 322 323 323 324 326 323 325 327 327 326 326 328 329 328 328 331
327 329 331 330 329 328 327 329 331 323 324 330 329 323 328 328 330 332 333 333 329 328 327 326 325 325 324 326 323 323 323 324 323 324 328 327 325 326 328 329 328 329 331
328 329 331 331 331 331 329 328 324 322 323 323 328 330 329 329 331 331 331 331 329 327 327 324 325 326 323 322 324 324 327 324 327 326 328 328 327 325 330 328 328 329 330
329 331 331 332 331 330 331 331 324 324 325 319 330 328 329 331 331 331 329 329 329 327 325 326 327 326 324 323 326 327 325 325 326 327 326 326 326 329 330 331 329 329 332
331 331 331 330 330 331 331 331 327 328 323 323 330 330 332 331 331 331 330 331 328 327 327 328 325 324 324 325 325 327 326 326 325 326 326 327 327 327 328 331 330 331 332
331 331 331 330 330 331 331 331 331 330 329 331 331 331 332 330 331 331 331 328 328 326 327 326 326 324 325 326 327 326 329 326 324 325 327 328 328 329 327 331 329 331 332
332 331 331 331 330 330 330 330 330 330 330 331 332 332 329 332 331 331 330 330 327 327 327 326 325 327 327 327 326 327 327 326 325 325 324 326 328 323 328 330 330 330 330
332 331 331 331 330 331 331 330 329 329 330 331 331 333 332 331 331 330 324 330 328 328 326 326 326 327 326 327 326 325 328 327 326 326 325 325 326 329 328 329 330 330 329
331 331 331 331 331 331 331 330 328 329 330 331 331 332 332 332 331 330 329 329 329 328 328 327 328 326 326 327 326 327 327 328 326 323 323 325 329 328 328 329 330 329 328
331 331 330 331 331 331 330 328 328 329 330 330 331 332 333 331 331 332 331 329 330 328 329 329 329 328 325 324 325 327 328 325 326 326 327 327 327 328 327 328 326 325 325
330 330 330 330 331 330 329 327 328 328 329 330 330 332 332 331 331 331 331 329 329 328 328 328 329 324 323 324 325 326 328 327 327 326 327 328 328 328 326 326 325 327 328
330 330 330 330 330 330 327 326 327 328 328 328 329 333 332 332 331 331 330 330 328 328 328 329 329 321 324 326 325 326 324 326 328 328 329 329 329 328 326 327 327 329 328
330 330 329 329 330 329 326 326 326 327 327 327 330 332 332 331 332 331 331 331 329 328 328 328 324 325 325 325 324 325 326 326 328 330 329 329 329 327 326 327 329 329 328
330 330 330 330 330 328 325 325 326 327 326 326 330 332 332 331 331 331 332 331 331 330 330 328 325 325 326 327 328 331 331 328 329 330 330 330 330 329 326 328 328 328 328
330 330 330 330 329 327 325 325 325 327 326 327 329 331 332 331 332 331 331 331 330 330 330 330 326 325 325 325 325 326 329 329 328 328 328 328 328 328 328 328 328 328 328
330 330 330 330 329 326 325 325 325 326 326 327 329 331 331 331 333 331 330 331 331 330 330 330 325 325 325 325 325 325 327 329 329 328 329 328 327 328 328 327 327 328 327
331 330 330 331 329 326 325 325 325 325 325 326 328 331 331 331 331 332 332 331 331 328 326 326 325 324 325 325 324 325 327 327 328 329 327 329 328 327 327 327 327 327 327
332 331 331 331 330 326 325 325 325 324 325 325 327 330 330 331 331 331 332 332 328 326 327 327 327 326 325 326 326 327 327 327 328 329 328 327 327 328 327 327 327 326 326
333 332 331 332 329 326 325 325 325 324 324 325 325 330 330 330 329 329 332 332 331 328 327 328 328 327 326 326 327 327 327 327 328 327 329 326 325 326 324 325 326 325 326
333 333 332 331 329 326 326 325 325 324 323 325 325 328 330 329 330 327 330 332 332 332 328 328 327 327 326 326 325 326 327 327 328 328 326 326 325 325 325 324 323 325 325
332 332 332 331 329 327 326 325 325 324 323 325 325 326 330 330 330 329 329 332 332 332 331 328 328 327 327 326 325 326 327 328 327 327 325 326 326 324 324 324 319 317 319
331 332 332 332 330 327 325 325 325 324 324 324 325 326 329 329 330 330 327 330 333 331 331 331 331 328 327 326 325 326 327 327 327 327 326 325 324 323 322 321 321 321 325
331 332 332 332 330 328 326 325 325 324 324 324 326 326 327 330 328 328 326 326 329 329 327 327 330 330 330 327 325 326 326 329 328 327 325 324 323 325 323 324 324 325 325
329 331 331 332 331 329 327 326 325 324 325 325 326 326 325 327 329 327 325 323 324 325 325 325 324 328 329 330 329 327 328 328 328 326 325 326 325 325 324 324 323 323 323
328 330 332 332 331 329 327 328 326 324 325 326 326 325 324 325 327 329 328 324 323 320 322 325 325 323 322 323 325 327 328 328 326 326 327 326 326 325 324 325 324 324 322
Wind_Speed
33 22 20 19 16 15 13 15 21 26 26 22 20 15 13 12 10 11 12 13 14 17 18 19 17 17 16 16 13 14 14 14 14 12 12 10 10 10 10 11 12 11 11
26 18 16 10 10 9 12 17 21 24 24 20 15 12 11 10 9 9 12 11 12 14 16 15 16 15 16 17 16 15 13 14 14 13 11 9 8 10 11 10 10 10 10
25 18 11 7 8 11 14 18 21 24 23 17 15 12 9 8 7 8 7 7 8 10 12 13 13 12 12 15 15 15 13 13 13 13 8 7 9 13 10 12 11 11 11
20 13 10 10 12 13 17 19 23 26 22 17 11 10 8 7 8 7 8 7 8 10 9 8 9 10 13 13 12 9 10 12 11 11 10 7 4 13 9 11 11 12 13
13 13 12 12 15 18 21 23 25 22 18 16 10 7 6 6 5 5 7 8 8 7 5 7 9 11 10 9 8 9 11 11 10 10 10 10 8 8 10 11 12 12 12
9 13 14 17 20 22 22 22 22 18 15 12 10 7 5 5 4 6 8 8 10 6 7 7 8 7 6 7 7 8 9 7 8 10 8 8 9 10 8 12 15 13 11
13 17 20 22 24 24 23 20 18 15 14 11 9 6 4 4 3 5 6 7 5 6 7 7 7 6 5 6 7 9 8 7 6 9 10 6 3 5 6 13 17 17 14
15 19 22 25 25 24 22 19 17 15 13 11 9 6 4 2 2 3 3 2 5 8 8 7 6 5 5 7 8 8 8 7 6 7 12 9 5 9 4 12 21 19 17
17 21 24 24 25 23 21 18 16 14 13 11 8 6 4 1 2 1 2 2 6 8 7 7 7 6 6 6 7 7 8 7 7 8 9 8 4 6 7 11 20 17 14
20 23 24 25 23 21 19 17 14 13 13 11 8 5 3 1 2 2 4 5 8 9 7 6 5 6 6 5 5 6 8 7 7 6 8 6 6 9 8 14 15 13 15
23 25 25 24 22 20 19 16 15 14 13 10 8 6 4 1 2 2 4 6 8 9 7 6 4 5 5 4 4 7 6 4 8 10 7 7 10 11 12 16 15 12 5
24 26 26 25 23 21 19 17 16 14 12 10 8 5 4 2 2 3 6 8 8 9 9 7 4 4 4 4 5 5 5 7 9 9 8 9 11 12 10 10 14 15 15
26 27 26 25 23 21 19 17 16 14 12 9 7 6 4 2 3 4 6 9 9 9 9 8 5 4 4 5 6 6 7 7 8 8 9 11 13 13 8 16 18 21 25
28 28 26 25 23 21 19 17 16 14 12 9 8 5 4 4 5 5 6 10 10 9 9 8 6 6 7 7 8 7 8 10 10 9 10 11 13 13 14 15 20 25 29
27 28 27 25 23 21 20 18 16 15 12 10 8 6 5 7 7 8 9 9 10 10 9 10 10 7 6 8 10 10 11 13 14 11 10 10 11 11 13 14 17 21 34
26 27 26 25 24 23 21 19 17 16 13 11 9 7 7 9 8 9 9 9 11 11 11 9 10 9 9 11 12 12 11 13 14 14 14 15 14 14 14 17 16 21 36
27 29 29 27 24 24 22 20 19 17 15 12 10 9 9 10 9 10 10 10 10 11 9 9 10 12 14 12 10 10 12 12 14 16 16 17 16 16 17 17 17 20 24
25 27 28 26 24 23 23 20 19 18 16 13 12 11 10 11 10 10 11 11 10 10 9 10 11 12 12 10 8 9 8 13 14 14 16 17 13 15 19 17 19 18 23
20 24 27 27 26 25 25 23 21 20 18 15 14 13 12 12 11 10 11 10 10 7 7 11 12 12 11 9 7 10 11 14 15 16 17 17 17 19 22 23 24 20 21
18 24 27 27 27 27 26 24 23 22 20 18 16 15 13 13 11 10 10 12 11 9 10 12 10 14 11 7 9 13 16 20 18 18 20 19 22 27 27 26 24 24 23
18 22 27 30 29 29 28 26 24 23 21 19 17 17 16 14 12 11 10 13 13 10 12 15 14 13 14 13 11 14 16 22 21 23 25 23 20 21 20 16 21 25 27
19 24 27 29 29 30 30 27 26 23 22 21 19 18 17 15 13 11 11 13 13 13 13 13 13 14 15 13 14 16 17 21 26 24 25 23 18 19 19 19 22 24 25
18 24 26 27 29 31 30 29 26 25 24 23 21 20 19 17 16 14 13 13 13 12 12 11 11 12 12 15 16 17 22 21 21 24 24 20 18 21 21 21 21 22 17
18 24 27 30 32 31 31 28 28 27 26 25 24 21 20 20 18 16 15 14 14 14 13 12 13 13 13 16 20 21 23 21 21 22 23 19 19 20 18 20 21 14 16
17 25 30 32 33 32 31 29 29 29 27 26 25 24 21 22 19 18 17 15 15 14 13 13 13 15 16 16 19 21 19 18 20 22 21 17 16 15 18 19 17 14 17
17 24 29 29 31 33 32 32 31 32 30 28 27 26 24 22 21 20 18 21 18 20 19 17 14 13 14 17 19 21 22 23 21 18 15 15 16 17 18 18 17 16 18
Wind_Direction
292 286 281 275 259 240 222 203 194 194 186 186 190 198 211 224 233 243 256 262 265 265 259 252 259 260 242 243 237 234 240 238 219 202 197 201 205 204 210 211 217 206 200
287 285 271 260 236 208 187 183 183 186 184 185 181 193 205 223 230 244 254 260 258 258 247 254 257 253 235 232 233 236 233 230 210 195 185 184 189 197 203 204 205 199 190
279 274 244 211 186 179 177 172 173 177 179 177 187 199 207 224 248 262 265 255 257 258 258 257 256 243 217 229 234 237 228 221 207 196 185 187 194 181 198 196 196 193 182
264 244 210 181 175 162 159 162 167 176 183 185 182 185 206 230 236 236 242 248 250 260 261 254 227 206 222 231 234 227 216 205 196 192 208 223 178 184 178 186 187 188 183
247 212 188 172 157 150 150 155 163 171 182 182 173 183 206 230 230 239 247 254 253 258 235 207 197 213 223 221 196 200 187 211 190 196 190 191 184 195 189 163 170 167 162
197 172 160 151 145 146 147 154 164 168 174 175 178 180 200 208 229 256 263 263 266 233 192 196 204 211 200 197 182 188 199 201 197 205 202 182 189 197 183 163 158 155 158
163 155 152 149 149 149 152 156 159 160 167 171 172 182 193 199 251 266 284 289 228 189 191 182 189 181 182 166 178 186 200 209 211 213 193 178 179 166 192 167 155 155 159
160 157 153 152 151 153 155 156 158 161 169 170 175 175 170 224 276 283 271 248 190 147 173 167 168 173 171 167 178 186 197 201 186 178 186 218 212 202 210 164 163 143 146
161 155 152 152 154 156 157 156 160 166 168 171 174 168 167 196 228 193 99 133 143 168 160 161 143 143 147 157 174 184 192 195 182 176 171 169 227 195 195 174 168 160 139
161 156 155 155 156 156 156 155 160 165 167 170 167 167 177 166 174 141 136 145 160 162 162 157 141 140 149 157 159 182 183 173 179 181 186 210 183 161 150 158 161 162 162
160 158 158 159 156 157 157 157 163 166 167 166 168 171 156 151 170 177 156 146 157 165 161 160 152 154 153 170 182 168 172 192 170 182 185 170 158 145 136 153 154 142 124
158 159 161 159 159 159 161 165 167 168 169 165 167 176 150 156 191 138 141 153 163 164 168 163 142 156 170 192 187 166 158 158 171 179 176 171 165 156 155 171 161 151 149
156 160 162 161 163 162 166 170 170 170 168 166 168 173 155 171 145 140 144 148 161 164 162 159 174 161 169 166 164 170 165 160 155 153 155 164 162 168 165 168 163 154 146
160 162 165 166 165 167 171 173 171 172 166 165 165 173 159 131 134 129 122 140 152 154 157 154 165 155 165 162 148 157 159 154 139 136 135 133 147 143 141 147 153 153 156
166 166 168 168 166 170 173 174 173 170 166 163 164 168 148 143 135 123 127 132 140 143 148 151 144 139 150 150 135 132 133 135 138 140 130 137 150 153 150 149 150 162 162
171 169 170 170 171 174 175 174 173 170 165 165 164 164 150 151 143 135 133 135 134 139 143 144 147 141 139 135 127 125 125 133 143 141 133 123 125 135 146 154 152 160 163
173 173 175 174 174 177 176 175 172 169 167 165 166 158 155 157 145 141 136 137 137 136 139 143 152 144 140 129 117 117 123 130 131 141 132 130 123 125 133 137 136 161 163
177 178 176 175 175 177 177 173 171 172 170 168 166 162 155 158 147 143 143 144 143 154 155 166 164 159 160 146 137 130 124 138 138 136 128 123 124 131 137 134 133 152 164
189 185 177 174 173 177 177 173 171 174 175 172 169 166 161 160 156 154 149 146 140 143 175 186 178 172 170 164 156 136 150 147 147 138 131 128 118 120 132 138 135 131 140
197 185 178 174 174 177 178 175 174 177 179 177 172 169 166 160 158 157 149 151 140 113 127 136 159 176 175 165 157 154 163 150 152 147 133 135 123 132 117 125 132 134 131
194 189 184 177 177 176 177 178 178 182 181 179 175 173 170 168 164 157 152 154 149 136 124 129 135 149 149 143 143 157 152 155 147 147 138 132 125 140 148 128 137 137 138
193 188 187 183 177 178 179 181 183 180 180 180 179 177 176 171 173 165 156 157 158 149 138 133 137 144 143 139 132 148 150 149 152 146 141 139 139 145 150 145 142 144 139
198 190 189 189 182 181 183 183 184 179 180 181 182 181 181 177 180 173 167 160 161 162 156 148 143 142 148 145 133 141 154 155 150 149 152 146 142 144 146 146 148 152 147
203 194 190 192 189 186 186 186 182 181 182 183 183 184 184 184 183 181 179 176 170 171 167 164 161 155 149 153 149 143 146 144 155 160 155 153 151 147 160 158 156 159 162
207 199 197 196 194 189 186 184 184 182 185 185 185 186 187 188 190 186 188 187 187 182 177 174 171 170 169 172 168 167 166 162 165 165 164 166 168 169 170 173 168 167 167
211 204 203 198 196 191 190 185 185 185 185 186 188 190 189 192 194 194 197 192 195 191 185 182 176 182 184 189 177 175 175 176 182 174 179 182 183 184 186 188 190 190 189